This demonstration page uses our WeatherBlox Daily Observations layout. Learn more.

39.29038, -76.61219

Hourly Observations for December 6, 2019

Temp ( °F °C ) Dew Point ( °F °C ) Humidity (%) Winds ( mph kmh ) Pressure ( in mb ) Visibility ( mi km ) Precip ( " mm )
12:54 am 00:54 undefined 38 3.3 23 -5 55 55 undefined N/A 30.18 1022 N/A 0 0
1:54 am 01:54 undefined 38 3.3 23 -5 55 55 undefined N/A 30.18 1022 N/A 0 0
2:54 am 02:54 undefined 38 3.3 24 -4.4 57 57 undefined N/A 30.17 1022 N/A 0 0
3:54 am 03:54 undefined 36 2.2 25 -3.9 64 64 undefined N/A 30.16 1022 N/A 0 0
4:54 am 04:54 undefined 35 1.7 24 -4.4 64 64 undefined N/A 30.16 1022 N/A 0 0
5:54 am 05:54 undefined 35 1.7 25 -3.9 67 67 undefined N/A 30.16 1021 N/A 0 0
6:54 am 06:54 undefined 35 1.7 25 -3.9 67 67 undefined N/A 30.16 1021 N/A 0 0
7:54 am 07:54 undefined 36 2.2 26 -3.3 67 67 undefined N/A 30.15 1021 N/A 0 0
8:54 am 08:54 undefined 40 4.4 27 -2.8 60 60 undefined N/A 30.15 1021 N/A 0 0
9:54 am 09:54 undefined 44 6.7 29 -1.7 55 55 undefined N/A 30.15 1021 N/A 0 0
10:54 am 10:54 undefined 49 9.4 31 -0.6 50 50 undefined N/A 30.11 1020 N/A 0 0
11:54 am 11:54 undefined 52 11.1 30 -1.1 43 43 undefined N/A 30.06 1018 N/A 0 0
12:54 pm 12:54 undefined 56 13.3 27 -2.8 33 33 undefined N/A 30.03 1017 N/A 0 0
1:54 pm 13:54 undefined 54 12.2 26 -3.3 34 34 undefined N/A 30.01 1016 N/A 0 0
2:54 pm 14:54 undefined 54 12.2 27 -2.8 35 35 undefined N/A 30.01 1016 N/A 0 0
3:54 pm 15:54 undefined 54 12.2 28 -2.2 37 37 undefined N/A 30.02 1017 N/A 0 0
4:54 pm 16:54 undefined 52 11.1 31 -0.6 45 45 undefined N/A 30.02 1017 N/A 0 0
5:54 pm 17:54 undefined 52 11.1 30 -1.1 43 43 undefined N/A 30.04 1017 N/A 0 0
6:54 pm 18:54 undefined 52 11.1 30 -1.1 43 43 undefined N/A 30.07 1018 N/A 0 0
7:54 pm 19:54 undefined 51 10.6 32 0 48 48 undefined N/A 30.09 1019 N/A 0 0
8:54 pm 20:54 undefined 49 9.4 34 1.1 56 56 undefined N/A 30.11 1020 N/A 0 0
9:54 pm 21:54 undefined 51 10.6 37 2.8 59 59 undefined N/A 30.13 1020 N/A 0 0
10:54 pm 22:54 undefined 48 8.9 31 -0.6 52 52 undefined N/A 30.17 1022 N/A 0 0
11:54 pm 23:54 undefined 46 7.8 25 -3.9 44 44 undefined N/A 30.2 1023 N/A 0 0

Powered by AerisWeather